Time,TemperatureF,DewpointF,PressureIn,WindDirection,WindDirectionDegrees,WindSpeedMPH,WindSpeedGustMPH,Humidity,HourlyPrecipIn,Conditions,Clouds,dailyrainin,SolarRadiationWatts/m^2,SoftwareType,DateUTC
2013-07-03 00:00:00,62.0,60.0,-100.00,NE,45,3.0,-999.0,92,-99.99,,,-99.99,1.160000,,2013-07-03 04:00:00,
2013-07-03 00:43:00,62.0,60.0,-100.00,NE,45,3.0,-999.0,92,-99.99,,,-99.99,1.160000,,2013-07-03 04:43:00,
2013-07-03 00:52:00,62.0,60.0,-100.00,NE,45,3.0,-999.0,92,-99.99,,,-99.99,1.160000,,2013-07-03 04:52:00,
2013-07-03 01:00:00,62.0,60.0,-100.00,ENE,67,2.0,-999.0,93,-99.99,,,-99.99,1.160000,,2013-07-03 05:00:00,
2013-07-03 01:48:00,62.0,60.0,-100.00,ENE,67,2.0,-999.0,93,-99.99,,,-99.99,1.160000,,2013-07-03 05:48:00,
2013-07-03 02:50:00,62.0,60.0,-100.00,East,90,1.0,-999.0,93,-99.99,,,-99.99,1.160000,,2013-07-03 06:50:00,
2013-07-03 02:58:00,62.0,60.0,-100.00,East,90,1.0,-999.0,93,-99.99,,,-99.99,1.160000,,2013-07-03 06:58:00,
2013-07-03 03:00:00,63.0,61.0,-100.00,East,90,3.0,-999.0,93,-99.99,,,-99.99,1.160000,,2013-07-03 07:00:00,
2013-07-03 03:48:00,63.0,61.0,-100.00,East,90,3.0,-999.0,93,-99.99,,,-99.99,1.160000,,2013-07-03 07:48:00,
2013-07-03 04:00:00,63.0,61.0,-100.00,ESE,112,3.0,-999.0,93,-99.99,,,-99.99,1.160000,,2013-07-03 08:00:00,
2013-07-03 04:47:00,63.0,61.0,-100.00,ESE,112,3.0,-999.0,93,-99.99,,,-99.99,1.160000,,2013-07-03 08:47:00,
2013-07-03 04:58:00,63.0,61.0,-100.00,ESE,112,3.0,-999.0,93,-99.99,,,-99.99,1.160000,,2013-07-03 08:58:00,
2013-07-03 05:58:00,64.0,62.0,-100.00,ESE,112,2.0,-999.0,92,-99.99,,,-99.99,1.160000,,2013-07-03 09:58:00,
2013-07-03 06:47:00,64.0,62.0,-100.00,SE,135,3.0,-999.0,92,-99.99,,,-99.99,1.160000,,2013-07-03 10:47:00,
2013-07-03 07:00:00,64.0,62.0,-100.00,SE,135,3.0,-999.0,92,-99.99,,,-99.99,8.120000,,2013-07-03 11:00:00,
2013-07-03 07:46:00,64.0,62.0,-100.00,SE,135,3.0,-999.0,92,-99.99,,,-99.99,8.120000,,2013-07-03 11:46:00,
2013-07-03 07:59:00,64.0,62.0,-100.00,SE,135,3.0,-999.0,92,-99.99,,,-99.99,8.120000,,2013-07-03 11:59:00,
2013-07-03 08:00:00,65.0,62.0,-100.00,SSE,157,4.0,-999.0,92,-99.99,,,-99.99,29.000000,,2013-07-03 12:00:00,
2013-07-03 08:47:00,65.0,62.0,-100.00,SSE,157,4.0,-999.0,92,-99.99,,,-99.99,29.000000,,2013-07-03 12:47:00,
2013-07-03 08:58:00,65.0,62.0,-100.00,SSE,157,4.0,-999.0,92,-99.99,,,-99.99,29.000000,,2013-07-03 12:58:00,
2013-07-03 09:00:00,65.0,62.0,-100.00,SSE,157,4.0,-999.0,91,-99.99,,,-99.99,76.559998,,2013-07-03 13:00:00,
2013-07-03 09:55:00,65.0,62.0,-100.00,SSE,157,4.0,-999.0,91,-99.99,,,-99.99,76.559998,,2013-07-03 13:55:00,
2013-07-03 10:00:00,67.0,63.0,-100.00,South,180,4.0,-999.0,87,-99.99,,,-99.99,175.160004,,2013-07-03 14:00:00,
2013-07-03 10:48:00,67.0,63.0,-100.00,South,180,4.0,-999.0,87,-99.99,,,-99.99,175.160004,,2013-07-03 14:48:00,
2013-07-03 10:55:00,67.0,63.0,-100.00,South,180,4.0,-999.0,87,-99.99,,,-99.99,175.160004,,2013-07-03 14:55:00,
2013-07-03 11:00:00,70.0,63.0,-100.00,South,180,4.0,-999.0,79,-99.99,,,-99.99,349.160004,,2013-07-03 15:00:00,
2013-07-03 11:57:00,70.0,63.0,-100.00,South,180,4.0,-999.0,79,-99.99,,,-99.99,349.160004,,2013-07-03 15:57:00,
2013-07-03 12:00:00,72.0,62.0,-100.00,SSW,202,6.0,-999.0,72,-99.99,,,-99.99,553.320007,,2013-07-03 16:00:00,
2013-07-03 12:47:00,72.0,62.0,-100.00,SSW,202,6.0,-999.0,72,-99.99,,,-99.99,553.320007,,2013-07-03 16:47:00,
2013-07-03 13:00:00,74.0,62.0,-100.00,SSW,202,5.0,-999.0,67,-99.99,,,-99.99,613.640015,,2013-07-03 17:00:00,
2013-07-03 13:50:00,74.0,62.0,-100.00,SSW,202,5.0,-999.0,67,-99.99,,,-99.99,613.640015,,2013-07-03 17:50:00,
2013-07-03 13:56:00,74.0,62.0,-100.00,SSW,202,5.0,-999.0,67,-99.99,,,-99.99,613.640015,,2013-07-03 17:56:00,
2013-07-03 14:00:00,76.0,63.0,-100.00,South,180,5.0,-999.0,64,-99.99,,,-99.99,721.520020,,2013-07-03 18:00:00,
2013-07-03 14:47:00,76.0,63.0,-100.00,South,180,5.0,-999.0,64,-99.99,,,-99.99,721.520020,,2013-07-03 18:47:00,
2013-07-03 14:59:00,76.0,63.0,-100.00,South,180,5.0,-999.0,64,-99.99,,,-99.99,721.520020,,2013-07-03 18:59:00,
2013-07-03 15:00:00,78.0,62.0,-100.00,South,180,7.0,-999.0,58,-99.99,,,-99.99,832.880005,,2013-07-03 19:00:00,
2013-07-03 15:49:00,78.0,62.0,-100.00,South,180,7.0,-999.0,58,-99.99,,,-99.99,832.880005,,2013-07-03 19:49:00,
2013-07-03 16:00:00,78.0,61.0,-100.00,South,180,9.0,-999.0,55,-99.99,,,-99.99,697.159973,,2013-07-03 20:00:00,
2013-07-03 16:47:00,78.0,61.0,-100.00,South,180,9.0,-999.0,55,-99.99,,,-99.99,697.159973,,2013-07-03 20:47:00,
2013-07-03 16:57:00,78.0,61.0,-100.00,South,180,9.0,-999.0,55,-99.99,,,-99.99,697.159973,,2013-07-03 20:57:00,
2013-07-03 17:00:00,78.0,60.0,-100.00,SSW,202,9.0,-999.0,54,-99.99,,,-99.99,622.919983,,2013-07-03 21:00:00,
2013-07-03 17:45:00,78.0,60.0,-100.00,SSW,202,9.0,-999.0,54,-99.99,,,-99.99,622.919983,,2013-07-03 21:45:00,
2013-07-03 17:55:00,78.0,60.0,-100.00,SSW,202,9.0,-999.0,54,-99.99,,,-99.99,622.919983,,2013-07-03 21:55:00,
2013-07-03 18:00:00,77.0,59.0,-100.00,SSW,202,9.0,-999.0,54,-99.99,,,-99.99,475.600006,,2013-07-03 22:00:00,
2013-07-03 18:47:00,77.0,59.0,-100.00,SSW,202,9.0,-999.0,54,-99.99,,,-99.99,475.600006,,2013-07-03 22:47:00,
2013-07-03 18:57:00,77.0,59.0,-100.00,SSW,202,9.0,-999.0,54,-99.99,,,-99.99,475.600006,,2013-07-03 22:57:00,
2013-07-03 19:00:00,77.0,60.0,-100.00,SSW,202,6.0,-999.0,57,-99.99,,,-99.99,374.679993,,2013-07-03 23:00:00,
2013-07-03 19:46:00,77.0,60.0,-100.00,SSW,202,6.0,-999.0,57,-99.99,,,-99.99,374.679993,,2013-07-03 23:46:00,
2013-07-03 19:56:00,77.0,60.0,-100.00,SSW,202,6.0,-999.0,57,-99.99,,,-99.99,374.679993,,2013-07-03 23:56:00,
2013-07-03 21:00:00,73.0,60.0,-100.00,SW,225,2.0,-999.0,65,-99.99,,,-99.99,71.919998,,2013-07-04 01:00:00,
2013-07-03 21:47:00,73.0,60.0,-100.00,SW,225,2.0,-999.0,65,-99.99,,,-99.99,71.919998,,2013-07-04 01:47:00,
2013-07-03 22:00:00,70.0,61.0,-100.00,SSW,202,0.0,-999.0,72,-99.99,,,-99.99,3.480000,,2013-07-04 02:00:00,
2013-07-03 22:49:00,70.0,61.0,-100.00,SSW,202,0.0,-999.0,72,-99.99,,,-99.99,3.480000,,2013-07-04 02:49:00,
2013-07-03 22:57:00,70.0,61.0,-100.00,SSW,202,0.0,-999.0,72,-99.99,,,-99.99,3.480000,,2013-07-04 02:57:00,
2013-07-03 23:00:00,69.0,62.0,-100.00,WSW,247,0.0,-999.0,78,-99.99,,,-99.99,0.000000,,2013-07-04 03:00:00,
2013-07-03 23:46:00,69.0,62.0,-100.00,WSW,247,0.0,-999.0,78,-99.99,,,-99.99,0.000000,,2013-07-04 03:46:00,
2013-07-03 23:57:00,69.0,62.0,-100.00,WSW,247,0.0,-999.0,78,-99.99,,,-99.99,0.000000,,2013-07-04 03:57:00,